DW1234 Weather Reports


Display with metric or nautical units.
time (UTC)temp
F
wind
direction
speed
MPH
gust
MPH
rain 1hr
in
rain 24hr
in
rain mn
in
humidity
%
barometer
mb
20181021115221 34 197 6.0 11.0 0.00 0.00 0.00 71 1025.5
20181021114710 34 171 5.0 11.0 0.00 0.00 0.00 72 1025.5
20181021114216 34 181 4.0 10.0 0.00 0.00 0.00 72 1025.5
20181021113716 34 193 6.0 9.0 0.00 0.00 0.00 72 1025.5
20181021113220 34 155 4.0 11.0 0.00 0.00 0.00 72 1025.5
20181021112725 34 192 5.0 11.0 0.00 0.00 0.00 72 1025.4
20181021112210 34 151 5.0 9.0 0.00 0.00 0.00 72 1025.4
20181021111713 34 189 4.0 9.0 0.00 0.00 0.00 72 1025.5
20181021111217 34 146 4.0 9.0 0.00 0.00 0.00 72 1025.6
20181021110721 34 155 5.0 8.0 0.00 0.00 0.00 72 1025.7
20181021110224 34 149 4.0 9.0 0.00 0.00 0.00 71 1025.8
20181021105709 34 150 4.0 8.0 0.00 0.00 0.00 71 1025.9
20181021105220 34 205 5.0 9.0 0.00 0.00 0.00 71 1026.0
20181021104706 34 210 5.0 9.0 0.00 0.00 0.00 71 1026.1
20181021104210 34 240 5.0 9.0 0.00 0.00 0.00 71 1026.2
20181021103715 34 181 5.0 9.0 0.00 0.00 0.00 71 1026.2
20181021103221 34 227 5.0 7.0 0.00 0.00 0.00 71 1026.3
20181021102706 34 195 5.0 8.0 0.00 0.00 0.00 71 1026.3
20181021102211 34 197 4.0 7.0 0.00 0.00 0.00 71 1026.3
20181021101719 34 224 5.0 9.0 0.00 0.00 0.00 71 1026.3
20181021101204 34 186 4.0 6.0 0.00 0.00 0.00 71 1026.2
20181021100710 34 229 3.0 6.0 0.00 0.00 0.00 71 1026.2
20181021100213 34 220 4.0 6.0 0.00 0.00 0.00 71 1026.3
20181021095720 34 218 3.0 6.0 0.00 0.00 0.00 72 1026.3
20181021095203 34 202 3.0 5.0 0.00 0.00 0.00 71 1026.1
20181021094710 34 183 2.0 5.0 0.00 0.00 0.00 71 1026.0
20181021094216 34 163 2.0 5.0 0.00 0.00 0.00 72 1025.9
20181021093703 34 159 3.0 5.0 0.00 0.00 0.00 71 1025.9
20181021093211 34 148 2.0 5.0 0.00 0.00 0.00 72 1025.8
20181021092711 35 156 2.0 5.0 0.00 0.00 0.00 71 1025.9
20181021092215 35 151 3.0 5.0 0.00 0.00 0.00 70 1026.0
20181021091212 35 188 2.0 6.0 0.00 0.00 0.00 69 1026.3
20181021090717 35 180 2.0 8.0 0.00 0.00 0.00 69 1026.2
20181021090219 35 148 4.0 8.0 0.00 0.00 0.00 68 1026.2
20181021085724 35 136 3.0 9.0 0.00 0.00 0.00 68 1026.1
20181021085207 36 138 4.0 9.0 0.00 0.00 0.00 68 1026.0
20181021084712 36 145 5.0 9.0 0.00 0.00 0.00 67 1026.0
20181021084219 36 151 5.0 9.0 0.00 0.00 0.00 67 1026.2
20181021083706 36 150 4.0 9.0 0.00 0.00 0.00 67 1026.3
20181021083211 36 157 4.0 9.0 0.00 0.00 0.00 67 1026.2
20181021082716 36 138 6.0 9.0 0.00 0.00 0.00 67 1026.4
20181021082219 36 157 6.0 10.0 0.00 0.00 0.00 67 1026.5
20181021081706 36 146 5.0 9.0 0.00 0.00 0.00 67 1026.5
20181021081210 36 211 3.0 10.0 0.00 0.00 0.00 66 1026.5
20181021080717 36 138 5.0 10.0 0.00 0.00 0.00 66 1026.5
20181021080218 36 142 5.0 10.0 0.00 0.00 0.00 66 1026.6
20181021075703 36 132 4.0 10.0 0.00 0.00 0.00 66 1026.7
20181021075211 37 149 5.0 10.0 0.00 0.00 0.00 65 1026.7
20181021074713 37 148 5.0 8.0 0.00 0.00 0.00 65 1026.7
20181021074220 37 151 4.0 7.0 0.00 0.00 0.00 65 1026.9
20181021073708 37 159 4.0 8.0 0.00 0.00 0.00 65 1027.0
20181021073216 37 149 3.0 8.0 0.00 0.00 0.00 65 1027.0
20181021072725 37 158 3.0 7.0 0.00 0.00 0.00 66 1027.1
20181021072211 37 146 3.0 8.0 0.00 0.00 0.00 66 1027.2
20181021071710 37 146 4.0 8.0 0.00 0.00 0.00 66 1027.2
20181021071214 37 139 4.0 8.0 0.00 0.00 0.00 66 1027.2
20181021070719 37 164 4.0 8.0 0.00 0.00 0.00 66 1027.1
20181021070221 37 144 4.0 8.0 0.00 0.00 0.00 66 1027.1
20181021065725 37 157 4.0 8.0 0.00 0.00 0.00 67 1027.2
20181021065210 37 144 2.0 6.0 0.00 0.00 0.00 66 1027.2
20181021064714 37 153 2.0 5.0 0.00 0.00 0.00 66 1027.2
20181021064220 37 153 2.0 4.0 0.00 0.00 0.00 65 1027.2
20181021063708 37 154 2.0 4.0 0.00 0.00 0.00 64 1027.2
20181021063213 37 154 0.0 5.0 0.00 0.00 0.00 63 1027.2
20181021062718 37 154 2.0 5.0 0.00 0.00 0.00 63 1027.2
20181021062222 38 155 3.0 4.0 0.00 0.00 0.00 63 1027.3
20181021061710 38 155 2.0 4.0 0.00 0.00 0.00 62 1027.2
20181021061214 38 155 2.0 4.0 0.00 0.00 0.00 62 1027.3
20181021060716 38 155 3.0 5.0 0.00 0.00 0.00 62 1027.3
20181021060215 38 155 3.0 5.0 0.00 0.00 0.00 62 1027.3
20181021055721 38 150 3.0 6.0 0.00 0.00 0.00 62 1027.3
20181021055206 38 150 4.0 6.0 0.00 0.00 0.00 62 1027.3
20181021054712 38 147 4.0 6.0 0.00 0.00 0.00 63 1027.3
20181021054221 38 149 2.0 6.0 0.00 0.00 0.00 63 1027.3
20181021053726 38 149 2.0 6.0 0.00 0.00 0.00 64 1027.3
20181021053208 38 144 1.0 4.0 0.00 0.00 0.00 63 1027.3
20181021052711 39 144 0.0 2.0 0.00 0.00 0.00 62 1027.3
20181021052216 39 144 1.0 3.0 0.00 0.00 0.00 61 1027.4
20181021051718 39 144 1.0 5.0 0.00 0.00 0.00 60 1027.5
20181021051224 39 144 3.0 5.0 0.00 0.00 0.00 60 1027.6
20181021050707 39 142 2.0 4.0 0.00 0.00 0.00 60 1027.7
20181021050206 39 130 2.0 3.0 0.00 0.00 0.00 60 1027.6
20181021045708 38 130 1.0 4.0 0.00 0.00 0.00 61 1027.7
20181021045215 38 129 2.0 4.0 0.00 0.00 0.00 63 1027.7
20181021044707 37 128 2.0 4.0 0.00 0.00 0.00 65 1027.7
20181021044214 37 123 2.0 4.0 0.00 0.00 0.00 65 1027.8
20181021043718 37 94 1.0 3.0 0.00 0.00 0.00 65 1027.7
20181021043207 37 94 2.0 3.0 0.00 0.00 0.00 64 1027.7
20181021042710 37 94 2.0 3.0 0.00 0.00 0.00 64 1027.6
20181021042216 37 94 2.0 3.0 0.00 0.00 0.00 64 1027.7
20181021041703 37 94 2.0 5.0 0.00 0.00 0.00 64 1027.8
20181021041211 38 94 2.0 5.0 0.00 0.00 0.00 63 1027.8
20181021040717 38 94 2.0 3.0 0.00 0.00 0.00 64 1027.7
20181021040216 38 94 2.0 3.0 0.00 0.00 0.00 63 1027.7
20181021035705 38 94 2.0 3.0 0.00 0.00 0.00 63 1027.7
20181021035210 38 94 1.0 3.0 0.00 0.00 0.00 63 1027.7
20181021034711 39 94 2.0 3.0 0.00 0.00 0.00 63 1027.7
20181021034218 39 94 2.0 3.0 0.00 0.00 0.00 63 1027.8
20181021033721 39 94 3.0 5.0 0.00 0.00 0.00 62 1027.8
20181021033224 39 94 2.0 5.0 0.00 0.00 0.00 62 1027.7
20181021032728 39 94 3.0 5.0 0.00 0.00 0.00 62 1027.6
20181021032212 39 94 2.0 5.0 0.00 0.00 0.00 62 1027.8
20181021031712 40 94 3.0 5.0 0.00 0.00 0.00 61 1027.7
20181021031218 40 94 1.0 3.0 0.00 0.00 0.00 60 1027.7
20181021030720 40 94 1.0 2.0 0.00 0.00 0.00 60 1027.6
20181021030222 40 94 0.0 2.0 0.00 0.00 0.00 60 1027.7
20181021025723 41 94 0.0 2.0 0.00 0.00 0.00 60 1027.6
20181021025206 41 94 0.0 2.0 0.00 0.00 0.00 60 1027.6
20181021024708 41 94 1.0 2.0 0.00 0.00 0.00 59 1027.5
20181021024214 41 94 1.0 2.0 0.00 0.00 0.00 59 1027.4
20181021023716 42 94 1.0 2.0 0.00 0.00 0.00 59 1027.5
20181021023221 42 94 0.0 2.0 0.00 0.00 0.00 58 1027.4
20181021022706 42 94 0.0 2.0 0.00 0.00 0.00 59 1027.4
20181021022210 42 94 1.0 2.0 0.00 0.00 0.00 59 1027.4
20181021021714 42 94 1.0 2.0 0.00 0.00 0.00 59 1027.5
20181021021218 42 94 1.0 3.0 0.00 0.00 0.00 59 1027.4
20181021020707 43 94 1.0 3.0 0.00 0.00 0.00 59 1027.4
20181021020208 43 94 0.0 3.0 0.00 0.00 0.00 60 1027.4
20181021015716 43 94 1.0 3.0 0.00 0.00 0.00 60 1027.2
20181021015218 43 46 2.0 4.0 0.00 0.00 0.00 59 1027.1
20181021014723 43 45 2.0 4.0 0.00 0.00 0.00 59 1027.1
20181021014208 44 49 1.0 3.0 0.00 0.00 0.00 57 1027.2
20181021013715 44 49 2.0 3.0 0.00 0.00 0.00 56 1027.2
20181021013220 44 45 1.0 4.0 0.00 0.00 0.00 55 1027.2
20181021012724 45 45 2.0 4.0 0.00 0.00 0.00 55 1027.1
20181021012228 45 43 1.0 4.0 0.00 0.00 0.00 54 1027.0
20181021011712 45 43 2.0 4.0 0.00 0.00 0.00 53 1027.1
20181021011217 45 40 2.0 3.0 0.00 0.00 0.00 52 1027.1
20181021010718 46 43 1.0 5.0 0.00 0.00 0.00 52 1027.2
20181021010220 46 44 2.0 5.0 0.00 0.00 0.00 52 1027.2
20181021005723 46 44 2.0 4.0 0.00 0.00 0.00 52 1027.0
20181021005206 46 41 1.0 4.0 0.00 0.00 0.00 51 1027.0
20181021004711 46 40 1.0 4.0 0.00 0.00 0.00 50 1027.1
20181021004216 46 17 2.0 4.0 0.00 0.00 0.00 50 1027.2
20181021003720 46 50 2.0 5.0 0.00 0.00 0.00 49 1027.0
20181021003209 47 24 2.0 5.0 0.00 0.00 0.00 49 1027.0
20181021002714 47 31 1.0 6.0 0.00 0.00 0.00 48 1027.0
20181021002222 47 360 2.0 6.0 0.00 0.00 0.00 48 1027.0
20181021001708 47 19 3.0 6.0 0.00 0.00 0.00 47 1026.9
20181021001216 47 15 3.0 5.0 0.00 0.00 0.00 46 1026.9
20181021000719 47 25 3.0 6.0 0.00 0.00 0.00 45 1026.9
20181021000218 47 11 2.0 9.0 0.00 0.00 0.00 45 1026.8
20181020235721 48 48 2.0 9.0 0.00 0.00 0.00 44 1026.8
20181020235225 48 63 3.0 8.0 0.00 0.00 0.00 44 1026.7
20181020234709 48 42 3.0 7.0 0.00 0.00 0.00 43 1026.6
20181020234217 49 19 3.0 6.0 0.00 0.00 0.00 43 1026.7
20181020233718 49 360 2.0 6.0 0.00 0.00 0.00 42 1026.7
20181020233207 49 329 3.0 7.0 0.00 0.00 0.00 41 1026.6
20181020232713 49 59 4.0 9.0 0.00 0.00 0.00 41 1026.6
20181020232218 50 347 4.0 11.0 0.00 0.00 0.00 40 1026.5
20181020231723 50 18 4.0 11.0 0.00 0.00 0.00 40 1026.5
20181020231209 50 32 4.0 10.0 0.00 0.00 0.00 40 1026.5
20181020230716 51 349 3.0 8.0 0.00 0.00 0.00 40 1026.6
20181020230213 51 63 3.0 10.0 0.00 0.00 0.00 39 1026.5
20181020225718 51 314 4.0 12.0 0.00 0.00 0.00 38 1026.4
20181020225225 51 14 2.0 12.0 0.00 0.00 0.00 38 1026.4
20181020224709 51 38 4.0 10.0 0.00 0.00 0.00 38 1026.4
20181020224216 51 343 2.0 10.0 0.00 0.00 0.00 39 1026.4
20181020223723 52 306 3.0 11.0 0.00 0.00 0.00 38 1026.5
20181020223210 52 303 5.0 11.0 0.00 0.00 0.00 38 1026.3
20181020222713 52 5 6.0 10.0 0.00 0.00 0.00 39 1026.2
20181020222213 52 17 5.0 10.0 0.00 0.00 0.00 39 1026.3
20181020221716 53 13 3.0 10.0 0.00 0.00 0.00 40 1026.4
20181020221220 53 348 1.0 11.0 0.00 0.00 0.00 39 1026.3
20181020220725 53 11 4.0 8.0 0.00 0.00 0.00 39 1026.4
20181020220208 53 327 5.0 9.0 0.00 0.00 0.00 40 1026.4
20181020215714 54 344 3.0 9.0 0.00 0.00 0.00 39 1026.4
20181020215221 54 327 3.0 8.0 0.00 0.00 0.00 39 1026.4
20181020214710 55 351 3.0 9.0 0.00 0.00 0.00 40 1026.5
20181020214217 55 303 5.0 9.0 0.00 0.00 0.00 41 1026.4
20181020213722 55 9 4.0 9.0 0.00 0.00 0.00 41 1026.4
20181020213208 55 311 4.0 11.0 0.00 0.00 0.00 40 1026.4
20181020212711 56 320 4.0 11.0 0.00 0.00 0.00 41 1026.4
20181020212213 55 345 5.0 10.0 0.00 0.00 0.00 42 1026.3
20181020211718 55 294 5.0 12.0 0.00 0.00 0.00 42 1026.4
20181020211226 55 305 6.0 12.0 0.00 0.00 0.00 40 1026.2
20181020210709 56 311 7.0 15.0 0.00 0.00 0.00 42 1026.2
20181020210207 56 335 4.0 15.0 0.00 0.00 0.00 43 1026.2
20181020205714 56 44 4.0 9.0 0.00 0.00 0.00 43 1026.2
20181020205225 56 360 2.0 10.0 0.00 0.00 0.00 43 1026.1
20181020204710 56 330 3.0 12.0 0.00 0.00 0.00 44 1026.0
20181020204214 56 348 5.0 12.0 0.00 0.00 0.00 43 1026.1
20181020203719 56 50 4.0 11.0 0.00 0.00 0.00 45 1026.0
20181020203223 56 328 4.0 12.0 0.00 0.00 0.00 45 1026.0
20181020202708 56 317 5.0 12.0 0.00 0.00 0.00 45 1026.0
20181020202214 56 320 5.0 15.0 0.00 0.00 0.00 45 1026.0
20181020201719 56 318 6.0 15.0 0.00 0.00 0.00 45 1026.0
20181020201224 55 325 3.0 14.0 0.00 0.00 0.00 46 1026.0
20181020200729 55 323 7.0 16.0 0.00 0.00 0.00 44 1026.0
20181020200213 55 304 8.0 16.0 0.00 0.00 0.00 42 1026.1
20181020195717 55 82 4.0 14.0 0.00 0.00 0.00 45 1026.0
20181020195221 55 281 5.0 12.0 0.00 0.00 0.00 44 1026.0
20181020194724 54 5 6.0 13.0 0.00 0.00 0.00 43 1026.1
20181020194229 55 355 6.0 14.0 0.00 0.00 0.00 45 1025.9
20181020193712 55 344 6.0 14.0 0.00 0.00 0.00 46 1026.0
20181020193215 55 326 6.0 13.0 0.00 0.00 0.00 46 1025.9
20181020192721 55 302 6.0 15.0 0.00 0.00 0.00 46 1025.8
20181020192226 55 300 5.0 14.0 0.00 0.00 0.00 45 1025.8
20181020191713 55 312 7.0 14.0 0.00 0.00 0.00 46 1025.9
20181020191221 54 333 6.0 14.0 0.00 0.00 0.00 46 1025.8
20181020190712 54 295 6.0 14.0 0.00 0.00 0.00 46 1026.0
20181020190212 54 350 5.0 18.0 0.00 0.00 0.00 46 1026.0
20181020185718 54 5 9.0 18.0 0.00 0.00 0.00 45 1025.9
20181020185222 55 345 5.0 12.0 0.00 0.00 0.00 48 1026.0
20181020184725 54 188 4.0 14.0 0.00 0.00 0.00 48 1025.9
20181020184211 55 355 7.0 19.0 0.00 0.00 0.00 46 1026.0
20181020183718 55 304 7.0 19.0 0.00 0.00 0.00 48 1026.0
20181020183225 55 325 7.0 17.0 0.00 0.00 0.00 49 1025.9
20181020182713 55 308 6.0 17.0 0.00 0.00 0.00 48 1025.9
20181020182220 55 327 7.0 14.0 0.00 0.00 0.00 48 1026.0
20181020181729 55 311 7.0 14.0 0.00 0.00 0.00 49 1026.1
20181020181213 55 312 3.0 12.0 0.00 0.00 0.00 50 1026.1
20181020180719 55 345 5.0 17.0 0.00 0.00 0.00 49 1026.1
20181020180218 55 284 6.0 17.0 0.00 0.00 0.00 48 1026.0
20181020175720 54 311 5.0 15.0 0.00 0.00 0.00 47 1026.1
20181020175225 54 306 5.0 12.0 0.00 0.00 0.00 49 1026.0
20181020174713 54 360 4.0 15.0 0.00 0.00 0.00 50 1026.0
20181020174222 54 323 10.0 15.0 0.00 0.00 0.00 49 1026.0
20181020173729 54 317 4.0 12.0 0.00 0.00 0.00 51 1026.2
20181020173213 54 315 4.0 19.0 0.00 0.00 0.00 52 1026.1
20181020172721 54 34 5.0 17.0 0.00 0.00 0.00 52 1025.9
20181020172228 54 343 6.0 17.0 0.00 0.00 0.00 50 1025.9
20181020171715 54 340 7.0 15.0 0.00 0.00 0.00 50 1025.9
20181020171220 54 310 7.0 15.0 0.00 0.00 0.00 50 1025.9
20181020170725 53 349 6.0 17.0 0.00 0.00 0.00 52 1025.8
20181020170226 54 22 6.0 17.0 0.00 0.00 0.00 51 1025.8
20181020165714 53 214 8.0 17.0 0.00 0.00 0.00 52 1025.8
20181020165219 53 46 5.0 14.0 0.00 0.00 0.00 51 1025.8
20181020164723 53 292 7.0 16.0 0.00 0.00 0.00 52 1025.7
20181020164226 53 348 8.0 16.0 0.00 0.00 0.00 52 1025.7
20181020163712 53 330 7.0 13.0 0.00 0.00 0.00 53 1025.6
20181020163218 53 355 4.0 13.0 0.00 0.00 0.00 53 1025.6
20181020162721 53 325 8.0 15.0 0.00 0.00 0.00 53 1025.5
20181020162230 53 299 4.0 15.0 0.00 0.00 0.00 54 1025.8
20181020161713 52 59 6.0 17.0 0.00 0.00 0.00 55 1025.8
20181020161217 52 344 7.0 22.0 0.00 0.00 0.00 54 1025.7
20181020160725 52 326 7.0 22.0 0.00 0.00 0.00 54 1025.6
20181020160226 52 309 6.0 19.0 0.00 0.00 0.00 54 1025.5
20181020155733 52 321 7.0 16.0 0.00 0.00 0.00 55 1025.4
20181020155216 52 298 5.0 14.0 0.00 0.00 0.00 55 1025.4
20181020154721 52 22 5.0 15.0 0.00 0.00 0.00 57 1025.3
20181020154213 52 328 9.0 15.0 0.00 0.00 0.00 55 1025.3
20181020153721 52 306 7.0 12.0 0.00 0.00 0.00 56 1025.3
20181020153226 52 302 4.0 15.0 0.00 0.00 0.00 58 1025.3
20181020152714 51 322 5.0 15.0 0.00 0.00 0.00 57 1025.3
20181020152218 51 298 5.0 14.0 0.00 0.00 0.00 57 1025.3
20181020151722 52 291 6.0 14.0 0.00 0.00 0.00 56 1025.3
20181020151227 52 293 4.0 15.0 0.00 0.00 0.00 56 1025.3
20181020150729 52 298 5.0 15.0 0.00 0.00 0.00 56 1025.2
20181020150231 52 279 4.0 11.0 0.00 0.00 0.00 57 1025.2
20181020145716 52 186 2.0 8.0 0.00 0.00 0.00 58 1025.1
20181020145226 52 305 3.0 8.0 0.00 0.00 0.00 58 1024.9
20181020144733 52 325 2.0 8.0 0.00 0.00 0.00 59 1024.8
20181020144219 51 305 3.0 11.0 0.00 0.00 0.00 59 1024.7
20181020143722 51 342 5.0 11.0 0.00 0.00 0.00 58 1024.7
20181020143227 51 291 2.0 11.0 0.00 0.00 0.00 59 1024.6
20181020142714 50 333 5.0 11.0 0.00 0.00 0.00 59 1024.5
20181020142221 50 295 3.0 10.0 0.00 0.00 0.00 59 1024.5
20181020141727 50 326 4.0 10.0 0.00 0.00 0.00 59 1024.5
20181020141215 50 315 5.0 11.0 0.00 0.00 0.00 60 1024.3
20181020140719 49 308 3.0 13.0 0.00 0.00 0.00 60 1024.3
20181020140224 49 333 4.0 13.0 0.00 0.00 0.00 62 1024.2
20181020135727 49 291 4.0 11.0 0.00 0.00 0.00 62 1024.0
20181020135231 48 333 4.0 11.0 0.00 0.00 0.00 63 1024.0
20181020134734 48 259 4.0 11.0 0.00 0.00 0.00 64 1023.9
20181020134217 47 309 3.0 7.0 0.00 0.00 0.00 66 1023.8
20181020133720 46 265 2.0 6.0 0.00 0.00 0.00 67 1023.7
20181020133225 46 313 2.0 8.0 0.00 0.00 0.00 68 1023.6
20181020132728 45 338 2.0 8.0 0.00 0.00 0.00 69 1023.5
20181020132234 45 319 2.0 8.0 0.00 0.00 0.00 70 1023.5
20181020131719 44 344 3.0 6.0 0.00 0.00 0.00 71 1023.4
20181020131224 43 315 3.0 6.0 0.00 0.00 0.00 71 1023.3
20181020130733 43 321 2.0 6.0 0.00 0.00 0.00 72 1023.2
20181020130234 42 24 2.0 6.0 0.00 0.00 0.00 72 1023.0
20181020125718 42 314 3.0 6.0 0.00 0.00 0.00 71 1023.0
20181020125222 42 326 3.0 6.0 0.00 0.00 0.00 71 1023.0
20181020124728 42 303 2.0 6.0 0.00 0.00 0.00 71 1022.9
20181020124218 42 313 2.0 6.0 0.00 0.00 0.00 71 1022.8
20181020123723 42 341 2.0 8.0 0.00 0.00 0.00 71 1022.8
20181020123229 42 310 3.0 8.0 0.00 0.00 0.00 70 1022.8
20181020122732 42 300 2.0 7.0 0.00 0.00 0.00 70 1022.8
20181020122217 42 298 2.0 7.0 0.00 0.00 0.00 70 1022.7
20181020121731 42 302 3.0 8.0 0.00 0.00 0.00 70 1022.7
20181020121215 42 304 3.0 8.0 0.00 0.00 0.00 70 1022.7
20181020120723 42 330 3.0 8.0 0.00 0.00 0.00 70 1022.6
20181020120224 42 329 3.0 8.0 0.00 0.00 0.00 71 1022.5
20181020115731 42 331 3.0 8.0 0.00 0.00 0.00 71 1022.5